Location: Del Amo
(33.8464°N, 118.2104°W)
Time: 07:49:56
(UTC+00:00)

Vanguard 3 - Pass Details

Date: 19 September 2024
Orbit: 507 x 3223 km, 33.3° (Epoch: 09 October)

Event Time Altitude Azimuth Distance (km) Brightness Sun altitude
Rises 13:13:47 0° 240° (WSW) 6,019 - -6.1°
Exits shadow 13:14:10 - 240° (WSW) 5,935 11.0 -6.0°
Reaches altitude 10° 13:17:17 10° 238° (WSW) 5,289 10.7 -5.4°
Maximum altitude 13:34:29 73° 158° (SSE) 3,283 10.3 -1.8°
Drops below altitude 10° 13:53:45 10° 79° (ENE) 5,832 13.6 2.2°
Sets 13:57:49 0° 77° (ENE) 6,637 13.9 3.0°
